EW6800 Weather Reports


time (UTC)temp
C
wind
direction
speed
KPH
gust
KPH
rain 1hr
cm
rain 24hr
cm
rain mn
cm
humidity
%
barometer
mb
20260906192041 17 309 4.8 11.3 0.00 0.00 0.00 68 1016.2
20260906191557 17 309 4.8 12.9 0.00 0.00 0.00 69 1016.3
20260906191044 17 296 6.4 12.9 0.00 0.00 0.00 68 1016.3
20260906190546 17 313 6.4 12.9 0.00 0.00 0.00 69 1016.4
20260906190058 17 302 4.8 11.3 0.00 0.00 0.00 70 1016.4
20260906185544 17 317 4.8 11.3 0.00 0.00 0.00 70 1016.3
20260906185043 16 323 4.8 12.9 0.00 0.00 0.00 70 1016.3
20260906184556 16 309 4.8 12.9 0.00 0.00 0.00 71 1016.3
20260906184042 16 328 4.8 11.3 0.00 0.00 0.00 72 1016.4
20260906183545 16 304 4.8 11.3 0.00 0.00 0.00 72 1016.3
20260906183100 16 305 4.8 11.3 0.00 0.00 0.00 73 1016.3
20260906182544 16 304 4.8 11.3 0.00 0.00 0.00 74 1016.4
20260906182044 16 311 4.8 11.3 0.00 0.00 0.00 72 1016.4
20260906181557 15 294 4.8 11.3 0.00 0.00 0.00 73 1016.4
20260906181043 15 298 4.8 11.3 0.00 0.00 0.00 74 1016.3
20260906180544 15 301 4.8 11.3 0.00 0.00 0.00 75 1016.3
20260906180105 15 301 4.8 11.3 0.00 0.00 0.00 75 1016.3
20260906175544 15 299 4.8 11.3 0.00 0.00 0.00 76 1016.3
20260906175044 15 295 3.2 11.3 0.00 0.00 0.00 77 1016.3
20260906174557 15 288 4.8 8.0 0.00 0.00 0.00 79 1016.2
20260906174045 14 307 4.8 8.0 0.00 0.00 0.00 79 1016.2
20260906173544 14 302 4.8 8.0 0.00 0.00 0.00 79 1016.3
20260906173106 14 309 3.2 8.0 0.00 0.00 0.00 81 1016.2
20260906172548 13 315 3.2 6.4 0.00 0.00 0.00 82 1016.2
20260906172043 13 315 1.6 6.4 0.00 0.00 0.00 83 1016.1
20260906171600 13 315 3.2 6.4 0.00 0.00 0.00 85 1016.1
20260906171043 12 313 3.2 6.4 0.00 0.00 0.00 87 1016.0
20260906170544 12 313 3.2 9.7 0.00 0.00 0.00 89 1016.0
20260906165543 12 305 6.4 9.7 0.00 0.00 0.00 94 1016.0
20260906165044 11 294 4.8 9.7 0.00 0.00 0.00 95 1016.0
20260906164612 11 301 4.8 11.3 0.00 0.00 0.00 95 1015.9
20260906164044 11 311 6.4 14.5 0.00 0.00 0.00 95 1015.9
20260906163544 11 302 6.4 14.5 0.00 0.00 0.00 95 1015.9
20260906163109 11 304 8.0 14.5 0.00 0.00 0.00 95 1015.8
20260906162544 10 303 8.0 14.5 0.00 0.00 0.00 96 1015.9
20260906162043 10 311 8.0 14.5 0.00 0.00 0.00 95 1015.9
20260906161604 10 300 8.0 14.5 0.00 0.00 0.00 96 1016.0
20260906161044 10 304 8.0 16.1 0.00 0.00 0.00 96 1016.0
20260906160544 10 316 8.0 16.1 0.00 0.00 0.00 95 1016.0
20260906160053 10 314 11.3 16.1 0.00 0.00 0.00 95 1015.9
20260906155544 10 309 9.7 14.5 0.00 0.00 0.00 95 1015.9
20260906155044 10 297 6.4 12.9 0.00 0.00 0.00 95 1016.0
20260906154558 10 302 6.4 12.9 0.00 0.00 0.00 95 1016.0
20260906154044 10 305 4.8 12.9 0.00 0.00 0.00 95 1016.0
20260906153547 10 309 8.0 12.9 0.00 0.00 0.00 95 1016.0
20260906153054 9 314 8.0 12.9 0.00 0.00 0.00 95 1016.0
20260906152546 9 309 8.0 12.9 0.00 0.00 0.00 95 1016.0
20260906152048 9 299 4.8 11.3 0.00 0.00 0.00 95 1015.9
20260906151601 9 306 4.8 11.3 0.00 0.00 0.00 95 1015.9
20260906151044 9 312 4.8 11.3 0.00 0.00 0.00 95 1016.0
20260906150544 9 306 6.4 12.9 0.00 0.00 0.00 95 1015.9
20260906150055 9 327 6.4 12.9 0.00 0.00 0.00 95 1015.9
20260906145544 9 319 6.4 11.3 0.00 0.00 0.00 95 1015.9
20260906145044 9 296 4.8 11.3 0.00 0.00 0.00 95 1015.9
20260906144559 9 300 4.8 12.9 0.00 0.00 0.00 95 1015.9
20260906144043 9 301 6.4 12.9 0.00 0.00 0.00 95 1015.8
20260906143545 9 304 4.8 12.9 0.00 0.00 0.00 95 1015.8
20260906143107 9 304 6.4 11.3 0.00 0.00 0.00 95 1015.7
20260906142545 9 303 4.8 11.3 0.00 0.00 0.00 95 1015.6
20260906142045 9 311 6.4 12.9 0.00 0.00 0.00 95 1015.4
20260906141554 9 315 6.4 12.9 0.00 0.00 0.00 95 1015.4
20260906141044 9 313 4.8 12.9 0.00 0.00 0.00 95 1015.4
20260906140544 9 306 6.4 11.3 0.00 0.00 0.00 95 1015.4
20260906140055 9 308 4.8 11.3 0.00 0.00 0.00 95 1015.4
20260906135545 9 311 6.4 11.3 0.00 0.00 0.00 95 1015.4
20260906135043 9 315 6.4 11.3 0.00 0.00 0.00 95 1015.4
20260906134601 9 309 4.8 12.9 0.00 0.00 0.00 95 1015.3
20260906134045 9 308 6.4 12.9 0.00 0.00 0.00 95 1015.4
20260906133545 9 311 6.4 12.9 0.00 0.00 0.00 95 1015.2
20260906133101 9 300 6.4 12.9 0.00 0.00 0.00 95 1015.3
20260906132545 9 311 6.4 12.9 0.00 0.00 0.00 95 1015.2
20260906132046 9 306 4.8 12.9 0.00 0.00 0.00 95 1015.3
20260906131554 9 305 6.4 14.5 0.00 0.00 0.00 95 1015.2
20260906131044 9 321 6.4 14.5 0.00 0.00 0.00 95 1015.2
20260906130547 9 310 4.8 12.9 0.00 0.00 0.00 95 1015.1
20260906130104 9 309 6.4 14.5 0.00 0.00 0.00 95 1015.2
20260906125545 9 305 6.4 14.5 0.00 0.00 0.00 95 1015.1
20260906125045 9 294 8.0 14.5 0.00 0.00 0.00 95 1015.1
20260906124559 9 315 6.4 12.9 0.00 0.00 0.00 94 1015.1
20260906124045 9 303 4.8 12.9 0.00 0.00 0.00 94 1015.1
20260906123544 9 298 4.8 12.9 0.00 0.00 0.00 94 1015.1
20260906123058 9 305 8.0 12.9 0.00 0.00 0.00 94 1015.1
20260906122548 9 313 6.4 12.9 0.00 0.00 0.00 94 1015.1
20260906122044 9 311 4.8 14.5 0.00 0.00 0.00 94 1015.1
20260906121557 9 312 4.8 14.5 0.00 0.00 0.00 94 1015.1
20260906121044 9 321 8.0 14.5 0.00 0.00 0.00 94 1015.1
20260906120544 9 305 11.3 16.1 0.00 0.00 0.00 94 1015.1
20260906120110 9 304 8.0 17.7 0.00 0.00 0.00 94 1015.1
20260906115545 9 319 11.3 17.7 0.00 0.00 0.00 94 1015.0
20260906115044 9 311 11.3 16.1 0.00 0.00 0.00 94 1015.1
20260906114602 9 298 11.3 16.1 0.00 0.00 0.00 94 1015.0
20260906114044 9 300 9.7 16.1 0.00 0.00 0.00 94 1015.0
20260906113545 9 313 9.7 16.1 0.00 0.00 0.00 94 1015.0
20260906113100 9 309 11.3 16.1 0.00 0.00 0.00 94 1014.9
20260906112544 9 316 9.7 16.1 0.00 0.00 0.00 94 1015.0
20260906112044 9 305 8.0 16.1 0.00 0.00 0.00 94 1015.0
20260906111607 9 306 11.3 16.1 0.00 0.00 0.00 93 1014.8
20260906111044 9 298 9.7 14.5 0.00 0.00 0.00 93 1014.9
20260906110547 9 311 6.4 14.5 0.00 0.00 0.00 93 1014.9
20260906110050 9 314 6.4 14.5 0.00 0.00 0.00 93 1014.8
20260906105544 9 311 4.8 12.9 0.00 0.00 0.00 93 1014.8
20260906105044 9 302 8.0 12.9 0.00 0.00 0.00 93 1014.9
20260906104559 10 303 6.4 12.9 0.00 0.00 0.00 93 1014.7
20260906104045 10 307 6.4 12.9 0.00 0.00 0.00 93 1014.8
20260906103546 10 317 8.0 16.1 0.00 0.00 0.00 93 1014.8
20260906103058 10 303 8.0 16.1 0.00 0.00 0.00 92 1014.8
20260906102545 10 296 12.9 16.1 0.00 0.00 0.00 92 1014.8
20260906102048 10 305 11.3 16.1 0.00 0.00 0.00 92 1014.8
20260906101552 10 302 9.7 14.5 0.00 0.00 0.00 91 1015.0
20260906101044 10 313 9.7 14.5 0.00 0.00 0.00 91 1015.0
20260906100544 10 311 9.7 14.5 0.00 0.00 0.00 90 1014.9
20260906100233 10 311 11.3 14.5 0.00 0.00 0.00 89 1014.9
20260906095545 10 310 9.7 14.5 0.00 0.00 0.00 88 1014.9
20260906095045 11 312 9.7 14.5 0.00 0.00 0.00 87 1015.0
20260906094557 11 311 8.0 12.9 0.00 0.00 0.00 85 1014.9
20260906094045 11 318 9.7 12.9 0.00 0.00 0.00 80 1014.8
20260906093545 12 309 8.0 11.3 0.00 0.00 0.00 76 1014.9
20260906093058 12 306 6.4 9.7 0.00 0.00 0.00 68 1014.9
20260906092547 13 318 4.8 9.7 0.00 0.00 0.00 61 1015.0
20260906092046 13 319 6.4 9.7 0.00 0.00 0.00 57 1015.0
20260906091600 13 317 6.4 11.3 0.00 0.00 0.00 57 1014.9
20260906091047 13 313 6.4 12.9 0.00 0.00 0.00 57 1015.1
20260906090543 13 317 8.0 12.9 0.00 0.00 0.00 57 1015.0
20260906090057 13 322 6.4 12.9 0.00 0.00 0.00 59 1015.0
20260906085543 13 326 6.4 12.9 0.00 0.00 0.00 60 1015.1
20260906085044 13 321 6.4 12.9 0.00 0.00 0.00 62 1015.1
20260906084558 13 314 8.0 12.9 0.00 0.00 0.00 60 1015.0
20260906084048 13 311 8.0 11.3 0.00 0.00 0.00 59 1015.1
20260906083544 13 311 6.4 11.3 0.00 0.00 0.00 61 1015.1
20260906083055 13 314 6.4 11.3 0.00 0.00 0.00 60 1015.2
20260906082544 12 316 6.4 11.3 0.00 0.00 0.00 62 1015.2
20260906082049 12 321 4.8 8.0 0.00 0.00 0.00 65 1015.2
20260906081559 12 321 6.4 8.0 0.00 0.00 0.00 68 1015.2
20260906081044 12 320 6.4 8.0 0.00 0.00 0.00 72 1015.4
20260906080544 12 319 6.4 8.0 0.00 0.00 0.00 73 1015.3
20260906080057 12 319 4.8 8.0 0.00 0.00 0.00 76 1015.3
20260906075545 12 321 4.8 9.7 0.00 0.00 0.00 77 1015.4
20260906075045 12 323 4.8 14.5 0.00 0.00 0.00 75 1015.4
20260906074601 13 323 9.7 14.5 0.00 0.00 0.00 70 1015.4
20260906074044 13 316 6.4 14.5 0.00 0.00 0.00 67 1015.3
20260906073545 13 313 8.0 14.5 0.00 0.00 0.00 66 1015.4
20260906073054 12 316 9.7 14.5 0.00 0.00 0.00 67 1015.3
20260906072545 12 309 8.0 12.9 0.00 0.00 0.00 72 1015.2
20260906072045 12 304 8.0 11.3 0.00 0.00 0.00 73 1015.3
20260906071600 12 314 4.8 8.0 0.00 0.00 0.00 76 1015.3
20260906071047 12 315 6.4 8.0 0.00 0.00 0.00 75 1015.3
20260906070544 12 319 4.8 8.0 0.00 0.00 0.00 74 1015.3
20260906070056 12 317 4.8 12.9 0.00 0.00 0.00 74 1015.3
20260906065544 12 321 6.4 12.9 0.00 0.00 0.00 75 1015.3
20260906065045 12 311 8.0 12.9 0.00 0.00 0.00 75 1015.3
20260906064559 12 319 8.0 12.9 0.00 0.00 0.00 77 1015.3
20260906064044 12 317 6.4 14.5 0.00 0.00 0.00 78 1015.3
20260906063543 12 321 8.0 14.5 0.00 0.00 0.00 78 1015.3
20260906063058 12 312 9.7 14.5 0.00 0.00 0.00 78 1015.4
20260906062548 12 313 8.0 14.5 0.00 0.00 0.00 78 1015.4
20260906062044 12 293 6.4 12.9 0.00 0.00 0.00 78 1015.4
20260906061556 12 314 8.0 12.9 0.00 0.00 0.00 79 1015.3
20260906061044 12 309 6.4 12.9 0.00 0.00 0.00 79 1015.4
20260906060544 12 310 6.4 9.7 0.00 0.00 0.00 79 1015.4
20260906060106 12 322 6.4 12.9 0.00 0.00 0.00 79 1015.4
20260906055545 12 317 8.0 12.9 0.00 0.00 0.00 78 1015.4
20260906055044 12 313 8.0 12.9 0.00 0.00 0.00 78 1015.4
20260906054558 11 311 9.7 12.9 0.00 0.00 0.00 79 1015.5
20260906054045 11 317 8.0 12.9 0.00 0.00 0.00 82 1015.5
20260906053544 11 319 6.4 11.3 0.00 0.00 0.00 84 1015.5
20260906053058 11 317 6.4 9.7 0.00 0.00 0.00 85 1015.6
20260906052602 11 320 6.4 12.9 0.00 0.00 0.00 85 1015.6
20260906052045 11 308 4.8 12.9 0.00 0.00 0.00 85 1015.6
20260906051603 11 315 4.8 9.7 0.00 0.00 0.00 85 1015.6
20260906051044 11 317 3.2 8.0 0.00 0.00 0.00 87 1015.7
20260906050544 11 323 3.2 8.0 0.00 0.00 0.00 86 1015.7
20260906050106 11 323 4.8 8.0 0.00 0.00 0.00 86 1015.6
20260906045547 12 327 3.2 6.4 0.00 0.00 0.00 84 1015.6
20260906045047 11 327 3.2 6.4 0.00 0.00 0.00 83 1015.6
20260906044559 11 327 4.8 8.0 0.00 0.00 0.00 83 1015.6
20260906044045 11 327 3.2 11.3 0.00 0.00 0.00 84 1015.6
20260906043545 12 331 4.8 11.3 0.00 0.00 0.00 84 1015.6
20260906043056 12 318 6.4 11.3 0.00 0.00 0.00 85 1015.6
20260906042545 12 316 6.4 12.9 0.00 0.00 0.00 84 1015.5
20260906042044 12 312 8.0 12.9 0.00 0.00 0.00 82 1015.4
20260906041557 12 315 6.4 12.9 0.00 0.00 0.00 81 1015.4
20260906041044 12 308 6.4 12.9 0.00 0.00 0.00 81 1015.3
20260906040544 12 315 8.0 12.9 0.00 0.00 0.00 81 1015.2
20260906040115 12 319 8.0 14.5 0.00 0.00 0.00 81 1015.3
20260906035543 12 313 8.0 14.5 0.00 0.00 0.00 83 1015.2
20260906035046 12 313 8.0 14.5 0.00 0.00 0.00 82 1015.2
20260906034559 12 303 6.4 14.5 0.00 0.00 0.00 82 1015.2
20260906034044 12 320 8.0 14.5 0.00 0.00 0.00 82 1015.1
20260906033545 12 311 8.0 14.5 0.00 0.00 0.00 81 1015.1
20260906033100 12 313 8.0 14.5 0.00 0.00 0.00 81 1015.0
20260906032546 12 296 8.0 12.9 0.00 0.00 0.00 81 1015.0
20260906032044 12 290 8.0 12.9 0.00 0.00 0.00 80 1014.9
20260906031606 12 298 6.4 12.9 0.00 0.00 0.00 80 1015.0
20260906031044 13 301 6.4 12.9 0.00 0.00 0.00 79 1014.9
20260906030544 13 293 4.8 12.9 0.00 0.00 0.00 79 1014.9
20260906025545 13 300 4.8 11.3 0.00 0.00 0.00 77 1015.0
20260906025044 13 288 4.8 12.9 0.00 0.00 0.00 76 1014.9
20260906024618 13 295 4.8 12.9 0.00 0.00 0.00 76 1014.9
20260906024043 13 300 6.4 12.9 0.00 0.00 0.00 76 1015.0
20260906023545 13 292 6.4 11.3 0.00 0.00 0.00 76 1015.1
20260906023055 14 307 4.8 14.5 0.00 0.00 0.00 75 1015.1
20260906022547 14 298 6.4 14.5 0.00 0.00 0.00 75 1015.1
20260906022044 14 305 8.0 14.5 0.00 0.00 0.00 76 1015.1
20260906021611 14 311 6.4 14.5 0.00 0.00 0.00 76 1015.2
20260906021044 15 299 9.7 14.5 0.00 0.00 0.00 75 1015.2
20260906020544 15 305 9.7 14.5 0.00 0.00 0.00 75 1015.2
20260906020106 15 312 8.0 14.5 0.00 0.00 0.00 75 1015.2
20260906015544 15 298 6.4 12.9 0.00 0.00 0.00 74 1015.1
20260906015048 15 296 4.8 12.9 0.00 0.00 0.00 73 1015.3
20260906014612 15 313 6.4 16.1 0.00 0.00 0.00 73 1015.3
20260906014044 15 302 9.7 16.1 0.00 0.00 0.00 71 1015.2
20260906013544 15 292 8.0 16.1 0.00 0.00 0.00 70 1015.3
20260906013100 16 311 6.4 16.1 0.00 0.00 0.00 69 1015.3
20260906012544 16 301 6.4 14.5 0.00 0.00 0.00 69 1015.2
20260906012046 16 322 6.4 14.5 0.00 0.00 0.00 68 1015.1
20260906011559 16 299 6.4 12.9 0.00 0.00 0.00 69 1015.3
20260906011044 16 295 6.4 14.5 0.00 0.00 0.00 69 1015.3
20260906010543 16 300 6.4 14.5 0.00 0.00 0.00 67 1015.3
20260906010113 16 290 8.0 16.1 0.00 0.00 0.00 67 1015.3
20260906005546 16 284 6.4 16.1 0.00 0.00 0.00 67 1015.1
20260906005044 16 309 8.0 14.5 0.00 0.00 0.00 66 1015.3
20260906004610 16 311 6.4 14.5 0.00 0.00 0.00 65 1015.2
20260906004044 16 305 4.8 16.1 0.00 0.00 0.00 64 1015.3
20260906003544 16 313 8.0 16.1 0.00 0.00 0.00 62 1015.2
20260906003118 17 291 9.7 17.7 0.00 0.00 0.00 61 1015.3
20260906002543 17 317 9.7 17.7 0.00 0.00 0.00 60 1015.2
20260906002046 17 311 9.7 14.5 0.00 0.00 0.00 58 1015.2
20260906001559 17 313 8.0 17.7 0.00 0.00 0.00 57 1015.2
20260906001043 17 296 9.7 20.9 0.00 0.00 0.00 57 1015.2
20260906000545 17 298 11.3 20.9 0.00 0.00 0.00 56 1015.2
20260906000103 17 313 12.9 20.9 0.00 0.00 0.00 56 1015.1
20260905235544 18 299 12.9 19.3 0.00 0.00 0.00 55 1015.1
20260905235044 18 305 9.7 17.7 0.00 0.00 0.00 55 1015.2
20260905234609 18 300 9.7 16.1 0.00 0.00 0.00 55 1015.2
20260905234046 18 307 8.0 16.1 0.00 0.00 0.00 54 1015.2
20260905233544 18 308 6.4 14.5 0.00 0.00 0.00 55 1015.2
20260905233101 18 296 6.4 16.1 0.00 0.00 0.00 56 1015.1
20260905232543 17 321 8.0 19.3 0.00 0.00 0.00 56 1015.2
20260905232045 17 297 9.7 19.3 0.00 0.00 0.00 58 1015.2
20260905231557 17 313 9.7 19.3 0.00 0.00 0.00 58 1015.2
20260905231043 17 312 11.3 17.7 0.00 0.00 0.00 59 1015.3
20260905230546 17 311 9.7 19.3 0.00 0.00 0.00 59 1015.4
20260905230058 17 296 11.3 19.3 0.00 0.00 0.00 59 1015.4
20260905225542 17 299 12.9 17.7 0.00 0.00 0.00 59 1015.4
20260905225043 17 288 11.3 17.7 0.00 0.00 0.00 60 1015.6
20260905224600 17 314 11.3 17.7 0.00 0.00 0.00 58 1015.4
20260905224042 18 303 11.3 17.7 0.00 0.00 0.00 58 1015.4
20260905223542 18 311 11.3 17.7 0.00 0.00 0.00 57 1015.5
20260905223057 18 300 11.3 20.9 0.00 0.00 0.00 56 1015.4
20260905222544 18 338 12.9 20.9 0.00 0.00 0.00 55 1015.5
20260905222043 18 311 11.3 19.3 0.00 0.00 0.00 55 1015.4
20260905221605 18 309 8.0 16.1 0.00 0.00 0.00 56 1015.4
20260905221045 18 317 9.7 14.5 0.00 0.00 0.00 57 1015.4
20260905220544 19 311 8.0 16.1 0.00 0.00 0.00 57 1015.4
20260905220106 19 300 8.0 16.1 0.00 0.00 0.00 58 1015.4
20260905215543 19 315 8.0 16.1 0.00 0.00 0.00 58 1015.5
20260905215047 19 313 9.7 17.7 0.00 0.00 0.00 57 1015.6
20260905214557 20 304 11.3 17.7 0.00 0.00 0.00 56 1015.5
20260905214042 20 319 9.7 16.1 0.00 0.00 0.00 54 1015.5
20260905213546 20 313 9.7 16.1 0.00 0.00 0.00 53 1015.5
20260905213058 20 323 8.0 16.1 0.00 0.00 0.00 52 1015.5
20260905212543 20 303 4.8 11.3 0.00 0.00 0.00 52 1015.6
20260905212043 20 308 4.8 12.9 0.00 0.00 0.00 51 1015.5
20260905211551 20 290 6.4 12.9 0.00 0.00 0.00 50 1015.6
20260905211043 20 311 6.4 11.3 0.00 0.00 0.00 52 1015.5
20260905210546 20 319 4.8 12.9 0.00 0.00 0.00 51 1015.6
20260905210103 20 294 6.4 12.9 0.00 0.00 0.00 49 1015.6
20260905205544 21 292 4.8 12.9 0.00 0.00 0.00 49 1015.6
20260905205044 21 312 4.8 12.9 0.00 0.00 0.00 47 1015.6
20260905204602 21 311 4.8 14.5 0.00 0.00 0.00 48 1015.6
20260905204045 21 319 6.4 14.5 0.00 0.00 0.00 47 1015.6
20260905203542 21 291 6.4 14.5 0.00 0.00 0.00 48 1015.6
20260905203057 21 323 4.8 12.9 0.00 0.00 0.00 48 1015.6
20260905202544 20 328 6.4 12.9 0.00 0.00 0.00 47 1015.6
20260905202043 20 298 4.8 11.3 0.00 0.00 0.00 50 1015.6
20260905201553 20 320 4.8 12.9 0.00 0.00 0.00 51 1015.6
20260905201044 20 309 6.4 12.9 0.00 0.00 0.00 50 1015.7
20260905200543 20 297 3.2 11.3 0.00 0.00 0.00 50 1015.7
20260905200104 20 311 4.8 11.3 0.00 0.00 0.00 51 1015.7
20260905195542 20 304 4.8 11.3 0.00 0.00 0.00 51 1015.8
20260905195043 21 315 6.4 11.3 0.00 0.00 0.00 49 1015.9
20260905194557 21 317 4.8 11.3 0.00 0.00 0.00 51 1015.8
20260905194044 20 317 3.2 12.9 0.00 0.00 0.00 51 1016.0
20260905193543 20 300 3.2 12.9 0.00 0.00 0.00 51 1016.0
20260905193107 20 334 3.2 12.9 0.00 0.00 0.00 51 1016.1
20260905192543 20 331 3.2 8.0 0.00 0.00 0.00 49 1016.1